Location: Arcueil
(48.7999°N, 2.3326°E)
Time: 08:47:59
(UTC+00:00)

Cosmos 2322 Rocket - Pass Details

Date: 03 February 2023
Orbit: 831 x 851 km, 71.0° (Epoch: 23 March)

Event Time Altitude Azimuth Distance (km) Brightness Sun altitude
Rises 19:59:40 0° 248° (WSW) 3,371 6.1 -31.1°
Reaches altitude 10° 20:02:33 10° 262° (W) 2,441 5.4 -31.6°
Maximum altitude 20:07:05 25° 316° (NW) 1,638 4.1 -32.3°
Enters shadow 20:10:08 16° 359° (N) 2,046 4.3 -32.8°
